• In Uzbekistan
  • List of Countries
  • For 7 days
  • Water Temperature
  • Satellite Maps
  • Weather Map
  • Weather Widgets
  • user-avatar
    Login

    Hourly Weather Aleksandria

    Today, 18 January, Thursday

    Time Temperature Precipitation Wind Pressure Humidity
    00:00 +14°C° 0 mm 6 mps 761 mmHg 68%
    01:00 +14°C° 0 mm 6 mps 761 mmHg 67%
    02:00 +13°C° 0 mm 6 mps 761 mmHg 65%
    03:00 +12°C° 0 mm 7 mps 761 mmHg 64%
    04:00 +12°C° 0 mm 7 mps 760 mmHg 63%
    05:00 +12°C° 0 mm 8 mps 760 mmHg 62%
    06:00 +12°C° 0 mm 8 mps 760 mmHg 61%
    07:00 +12°C° 0 mm 8 mps 760 mmHg 60%
    08:00 +12°C° 0 mm 9 mps 760 mmHg 59%
    09:00 +15°C° 0 mm 9 mps 760 mmHg 55%
    10:00 +16°C° 0 mm 10 mps 759 mmHg 52%
    11:00 +17°C° 0 mm 10 mps 759 mmHg 48%
    12:00 +18°C° 0 mm 11 mps 759 mmHg 48%
    13:00 +18°C° 0 mm 11 mps 758 mmHg 49%
    14:00 +19°C° 0 mm 12 mps 757 mmHg 49%
    15:00 +18°C° 0.1 mm 13 mps 757 mmHg 54%
    16:00 +18°C° 0.1 mm 13 mps 757 mmHg 59%
    17:00 +18°C° 0.1 mm 14 mps 757 mmHg 63%
    18:00 +17°C° 0 mm 14 mps 758 mmHg 60%
    19:00 +15°C° 0 mm 14 mps 758 mmHg 57%
    20:00 +14°C° 0 mm 14 mps 759 mmHg 55%
    21:00 +14°C° 0 mm 14 mps 759 mmHg 53%
    22:00 +14°C° 0 mm 13 mps 760 mmHg 52%
    23:00 +13°C° 0 mm 13 mps 760 mmHg 51%

    Tomorrow, 19 January, Friday

    Time Temperature Precipitation Wind Pressure Humidity
    00:00 +13°C° 0 mm 13 mps 761 mmHg 52%
    01:00 +12°C° 0 mm 12 mps 761 mmHg 53%
    02:00 +12°C° 0 mm 12 mps 761 mmHg 54%
    03:00 +12°C° 0 mm 12 mps 761 mmHg 55%
    04:00 +12°C° 0 mm 11 mps 761 mmHg 57%
    05:00 +12°C° 0 mm 11 mps 761 mmHg 59%
    06:00 +12°C° 0 mm 11 mps 762 mmHg 58%
    07:00 +12°C° 0 mm 10 mps 762 mmHg 58%
    08:00 +12°C° 0 mm 10 mps 763 mmHg 58%
    09:00 +13°C° 0 mm 10 mps 763 mmHg 56%
    10:00 +14°C° 0 mm 10 mps 764 mmHg 54%
    11:00 +14°C° 0 mm 10 mps 764 mmHg 52%
    12:00 +14°C° 0 mm 10 mps 764 mmHg 51%
    13:00 +16°C° 0 mm 10 mps 764 mmHg 51%
    14:00 +16°C° 0 mm 10 mps 763 mmHg 51%
    15:00 +16°C° 0 mm 9 mps 764 mmHg 52%
    16:00 +16°C° 0 mm 8 mps 764 mmHg 54%
    17:00 +15°C° 0 mm 7 mps 764 mmHg 56%
    18:00 +15°C° 0 mm 7 mps 765 mmHg 59%
    19:00 +14°C° 0 mm 6 mps 765 mmHg 62%
    20:00 +13°C° 0 mm 5 mps 766 mmHg 66%
    21:00 +13°C° 0 mm 5 mps 766 mmHg 66%
    22:00 +13°C° 0 mm 4 mps 766 mmHg 67%
    23:00 +13°C° 0 mm 4 mps 766 mmHg 67%

    Day after tomorrow, 20 January, Saturday

    Time Temperature Precipitation Wind Pressure Humidity
    00:00 +13°C° 0 mm 4 mps 766 mmHg 68%
    01:00 +13°C° 0 mm 3 mps 766 mmHg 69%
    02:00 +12°C° 0 mm 3 mps 766 mmHg 70%
    03:00 +12°C° 0 mm 3 mps 766 mmHg 71%
    04:00 +12°C° 0 mm 3 mps 766 mmHg 73%
    05:00 +13°C° 0 mm 2 mps 766 mmHg 75%
    06:00 +13°C° 0 mm 2 mps 766 mmHg 75%
    07:00 +13°C° 0 mm 2 mps 767 mmHg 75%
    08:00 +14°C° 0 mm 2 mps 767 mmHg 75%
    09:00 +15°C° 0 mm 2 mps 767 mmHg 69%
    10:00 +16°C° 0 mm 2 mps 767 mmHg 64%
    11:00 +18°C° 0 mm 2 mps 767 mmHg 58%
    12:00 +18°C° 0 mm 2 mps 767 mmHg 56%
    13:00 +19°C° 0 mm 2 mps 766 mmHg 53%
    14:00 +19°C° 0 mm 2 mps 765 mmHg 50%
    15:00 +19°C° 0 mm 2 mps 766 mmHg 52%
    16:00 +18°C° 0 mm 2 mps 766 mmHg 54%
    17:00 +18°C° 0 mm 2 mps 766 mmHg 57%
    18:00 +17°C° 0 mm 2 mps 766 mmHg 62%
    19:00 +16°C° 0 mm 2 mps 766 mmHg 68%
    20:00 +15°C° 0 mm 2 mps 766 mmHg 74%
    21:00 +14°C° 0 mm 2 mps 766 mmHg 77%
    22:00 +13°C° 0 mm 3 mps 766 mmHg 80%
    23:00 +13°C° 0 mm 4 mps 766 mmHg 83%

    21 January, Sunday

    Time Temperature Precipitation Wind Pressure Humidity
    00:00 +12°C° 0 mm 4 mps 766 mmHg 81%
    01:00 +12°C° 0 mm 4 mps 765 mmHg 79%
    02:00 +10°C° 0 mm 5 mps 765 mmHg 77%
    03:00 +10°C° 0 mm 5 mps 764 mmHg 76%
    04:00 +10°C° 0 mm 5 mps 764 mmHg 75%
    05:00 +9°C° 0 mm 5 mps 763 mmHg 74%
    06:00 +10°C° 0 mm 5 mps 764 mmHg 74%
    07:00 +10°C° 0 mm 5 mps 764 mmHg 73%
    08:00 +10°C° 0 mm 5 mps 764 mmHg 73%
    09:00 +13°C° 0 mm 5 mps 763 mmHg 63%
    10:00 +15°C° 0 mm 4 mps 763 mmHg 54%
    11:00 +18°C° 0 mm 4 mps 763 mmHg 44%
    12:00 +19°C° 0 mm 4 mps 762 mmHg 40%
    13:00 +21°C° 0 mm 4 mps 761 mmHg 35%
    14:00 +22°C° 0 mm 3 mps 760 mmHg 31%
    15:00 +21°C° 0 mm 3 mps 759 mmHg 31%
    16:00 +21°C° 0 mm 2 mps 759 mmHg 32%
    17:00 +20°C° 0 mm 2 mps 758 mmHg 33%
    18:00 +19°C° 0 mm 3 mps 758 mmHg 33%
    19:00 +18°C° 0 mm 3 mps 758 mmHg 32%
    20:00 +18°C° 0 mm 4 mps 758 mmHg 32%
    21:00 +16°C° 0 mm 5 mps 758 mmHg 32%
    22:00 +16°C° 0 mm 6 mps 757 mmHg 31%
    23:00 +16°C° 0 mm 7 mps 757 mmHg 31%

    22 January, Monday

    Time Temperature Precipitation Wind Pressure Humidity
    00:00 +16°C° 0 mm 8 mps 756 mmHg 30%
    01:00 +16°C° 0 mm 8 mps 756 mmHg 30%
    02:00 +16°C° 0 mm 9 mps 756 mmHg 30%
    03:00 +15°C° 0 mm 9 mps 755 mmHg 33%
    04:00 +13°C° 0 mm 9 mps 755 mmHg 36%
    05:00 +13°C° 0 mm 9 mps 755 mmHg 38%
    06:00 +13°C° 0 mm 9 mps 755 mmHg 43%
    07:00 +13°C° 0 mm 9 mps 756 mmHg 47%
    08:00 +13°C° 0 mm 8 mps 756 mmHg 51%
    09:00 +15°C° 0 mm 9 mps 756 mmHg 51%
    10:00 +16°C° 0 mm 10 mps 756 mmHg 51%
    11:00 +17°C° 0 mm 10 mps 756 mmHg 50%
    12:00 +17°C° 0.3 mm 11 mps 755 mmHg 53%
    13:00 +17°C° 0.3 mm 12 mps 755 mmHg 56%
    14:00 +17°C° 0.3 mm 12 mps 754 mmHg 58%
    15:00 +15°C° 0.2 mm 12 mps 754 mmHg 56%
    16:00 +15°C° 0.2 mm 12 mps 755 mmHg 54%
    17:00 +16°C° 0.2 mm 11 mps 755 mmHg 52%
    18:00 +16°C° 0.1 mm 11 mps 755 mmHg 55%
    19:00 +14°C° 0.1 mm 10 mps 756 mmHg 58%
    20:00 +15°C° 0.1 mm 9 mps 756 mmHg 61%
    21:00 +15°C° 0.3 mm 9 mps 756 mmHg 65%
    22:00 +15°C° 0.3 mm 9 mps 757 mmHg 69%
    23:00 +15°C° 0.3 mm 9 mps 757 mmHg 72%

    23 January, Tuesday

    Time Temperature Precipitation Wind Pressure Humidity
    00:00 +15°C° 0.3 mm 9 mps 757 mmHg 72%
    01:00 +15°C° 0.3 mm 9 mps 757 mmHg 72%
    02:00 +13°C° 0.3 mm 9 mps 757 mmHg 73%
    03:00 +13°C° 0.1 mm 9 mps 757 mmHg 71%
    04:00 +13°C° 0.1 mm 9 mps 757 mmHg 70%
    05:00 +13°C° 0.1 mm 9 mps 758 mmHg 68%
    06:00 +13°C° 0.1 mm 9 mps 758 mmHg 68%
    07:00 +13°C° 0.1 mm 9 mps 758 mmHg 68%
    08:00 +13°C° 0.1 mm 10 mps 759 mmHg 69%
    09:00 +13°C° 0.3 mm 10 mps 759 mmHg 67%
    10:00 +13°C° 0.3 mm 11 mps 759 mmHg 65%
    11:00 +13°C° 0.3 mm 11 mps 759 mmHg 63%
    12:00 +13°C° 0.1 mm 12 mps 759 mmHg 59%
    13:00 +13°C° 0.1 mm 12 mps 759 mmHg 56%
    14:00 +14°C° 0.1 mm 13 mps 759 mmHg 53%
    15:00 +13°C° 0.1 mm 13 mps 759 mmHg 55%
    16:00 +13°C° 0.1 mm 13 mps 759 mmHg 56%
    17:00 +12°C° 0.1 mm 13 mps 759 mmHg 58%
    18:00 +12°C° 0.3 mm 12 mps 759 mmHg 58%
    19:00 +12°C° 0.3 mm 12 mps 759 mmHg 59%
    20:00 +10°C° 0.3 mm 12 mps 759 mmHg 60%
    21:00 +10°C° 0.3 mm 12 mps 759 mmHg 61%
    22:00 +10°C° 0.3 mm 12 mps 759 mmHg 62%
    23:00 +10°C° 0.3 mm 12 mps 759 mmHg 63%
    Show more